CZ-4 DEB

Satellite information

Favourite Embed

Satellite Type and Status

DEBRISIN ORBIT

Key statistics

Satellite CZ-4 DEB at a glance.

Uptime

9398

Days in orbit

Revolutions

≈ 14.4

Per day

Orbit

SSO

Sun Synchronous Orbit

Inclination

98.7

Latest

Satellite identification and parameters

Extended collection of information and parameters for CZ-4 DEB.

Object identification

Identified? True

Debris? True

Object name: CZ-4 DEB

International designator: 1999-057SJ

Object number (NORAD): 35330

Object ID (CCSDS): 35330

Country: PEOPLES REPUBLIC OF CHINA (PRC)

Current information (Y/N): Y

RCS size: SMALL

Orbital parameters

Period: 99.774 minutes

Inclination: 98.692 deg

SMA: 7125.883 km

Apoapsis: 805.291 km

Periapsis: 690.204 km

RAAN: 225.9201 deg

Eccentricy: 0.0080753

Argument of periapsis: 338.179 deg

Mean anomaly: 21.5967 deg

Mean motion: 14.43260588 rev/day

Mean motion (dot): 0.00000503 rev/day2

B* drag term: 0.00015771 1/REarth

Two-line elements (TLE)

Creation date: July 5, 2025, 5:45 p.m.

Reference frame: TEME

Reference center: EARTH

Epoch: July 5, 2025, 7:48 a.m. UTC

TLE line 0: 0 CZ-4 DEB

TLE line 1: 1 35330U 99057SJ 25186.32520338 .00000503 00000-0 15771-3 0 9994

TLE line 2: 2 35330 98.6920 225.9201 0080753 338.1790 21.5967 14.43260588170598

Live tracking on map

Real-time ground track for satellite CZ-4 DEB.

In-orbit conjunctions

A list of the most updated potential collisions computed for object CZ-4 DEB.

Target Orbit TCA Probability of collision Miss distance Type
CZ-6A R/B LEO 2025-05-17 08:38:21 0.0001328373 555.0 (m) ROCKET BODY
SL-6 R/B SSO 2025-03-24 17:32:36 0.0001494398 553.0 (m) ROCKET BODY
COSMOS 2251 DEB LEO 2025-03-07 06:05:07 0.0003331964 60.0 (m) DEBRIS
COSMOS 374 DEB MEO 2024-11-11 10:40:37 0.0003782344 275.0 (m) DEBRIS

Associated space launch

The CBERS (China Brazil Earth Resources Satellite) or ZY 1 (Zi Yuan) satellites are designed for global coverage and include cameras to make optical observations and a data collecting system to gather data on the environment. They are unique systems due to the use of on-board sensors which combine features that are especially designed to resolve the broad range of space and time scales involved in the monitoring and preservation of the ecosystem. They are operated jointly by the China Centre for Resources Satellite Data and Application (CRESDA) and the Brazilian INPE (Instituto Nacional de Pesquisas Espaciais, National Institute of Space Research).

CZ-4 DEB was lifted into orbit during the mission ‘Long March 4B | Zi Yuan 1-1’, on board a Long March 4B space rocket.

The launch took place on Oct. 14, 1999, 3:15 a.m. from Launch Complex 7.

For more information about the launch, click the button.

Launch to space Long March 4B | Zi Yuan 1-1
Long March 4B | Zi Yuan 1-1

Agency: N/A

Status: Launch Successful

Launch date: Oct. 14, 1999, 3:15 a.m. UTC

Rocket: Long March 4B

Launch pad: Launch Complex 7

Location: Taiyuan Satellite Launch Center, People's Republic of China

...

Latest news about this satellite

There are no fresh news available about this satellite. Check back as we update our databases every day.


Newsletter sign-up

Weekly statistics, charts and insights to help you stay on top of the space industry.